This is the latest recevied weather packets stored in our database for station/object AB0TJ. If no packets are shown the sender has not sent any weather packets the latest 10 day(s).
| Time | Temp. | Humidity | Pressure | Rain* | Wind** | Luminosity | Snow |
|---|---|---|---|---|---|---|---|
| 1777603889 | 13.33° C | 39% | 1015.3 hPa | 0 mm | - | 0 W/m² | - |
| 1777603389 | 13.33° C | 38% | 1015.1 hPa | 0 mm | - | 0 W/m² | - |
| 1777602909 | 13.89° C | 37% | 1015.1 hPa | 0 mm | - | 0 W/m² | - |
| 1777602346 | 13.89° C | 36% | 1014.9 hPa | 0 mm | - | 0 W/m² | - |
| 1777601764 | 14.44° C | 35% | 1015 hPa | 0 mm | - | 1 W/m² | - |
| 1777601273 | 15° C | 34% | 1014.7 hPa | 0 mm | - | 4 W/m² | - |
| 1777600749 | 15.56° C | 33% | 1014.8 hPa | 0 mm | - | 9 W/m² | - |
| 1777600244 | 15.56° C | 32% | 1014.2 hPa | 0 mm | - | 13 W/m² | - |
| 1777599741 | 16.11° C | 28% | 1014.2 hPa | 0 mm | - | 18 W/m² | - |
| 1777599159 | 17.22° C | 26% | 1014.3 hPa | 0 mm | - | 24 W/m² | - |
| 1777598659 | 17.78° C | 25% | 1014 hPa | 0 mm | - | 40 W/m² | - |
| 1777598064 | 17.78° C | 26% | 1014.1 hPa | 0 mm | - | 64 W/m² | - |
| 1777597499 | 18.33° C | 25% | 1014 hPa | 0 mm | - | 98 W/m² | - |
| 1777596912 | 17.78° C | 25% | 1014.2 hPa | 0 mm | - | 103 W/m² | - |
| 1777596430 | 17.22° C | 26% | 1013.8 hPa | 0 mm | - | 150 W/m² | - |
| 1777595869 | 17.22° C | 27% | 1014 hPa | 0 mm | - | 50 W/m² | - |
| 1777595384 | 17.78° C | 27% | 1014 hPa | 0 mm | - | 67 W/m² | - |
| 1777594819 | 18.89° C | 26% | 1013.7 hPa | 0 mm | - | 131 W/m² | - |
| 1777594284 | 19.44° C | 25% | 1014.1 hPa | 0 mm | - | 233 W/m² | - |
| 1777593704 | 19.44° C | 25% | 1014 hPa | 0 mm | - | 248 W/m² | - |
| 1777593173 | 19.44° C | 25% | 1013.9 hPa | 0 mm | - | 361 W/m² | - |
| 1777592676 | 19.44° C | 25% | 1014 hPa | 0 mm | - | 424 W/m² | - |
| 1777592169 | 18.89° C | 25% | 1013.8 hPa | 0 mm | - | 478 W/m² | - |
| 1777591609 | 18.89° C | 26% | 1014 hPa | 0 mm | - | 462 W/m² | - |
| 1777591094 | 19.44° C | 26% | 1013.6 hPa | 0 mm | - | 472 W/m² | - |
* Rain latest hour (hover to see other rain measurements)
** Current wind speed in m/s (hover to see current wind gust speed)